Weather History for Fort Dodge, IA

Change the Weather History Date:

Tuesday, February 19, 2013

  Actual Average Record
Temperature  
Mean Temperature 9 °F -  
Max Temperature 17 °F 35 °F 62 °F (1981)
Min Temperature 1 °F 15 °F -13 °F (1959)
Degree Days  
Heating Degree Days 56    
Moisture  
Dew Point -1 °F    
Average Humidity 62    
Maximum Humidity 79    
Minimum Humidity 49    
Precipitation  
Precipitation 0.00 in - - ()
Sea Level Pressure  
Sea Level Pressure 30.16 in    
Wind  
Wind Speed 13 mph (NW)    
Max Wind Speed 23 mph    
Max Gust Speed 37 mph    
Visibility 10 miles    
Events      
Averages and records for this station are not official NWS values.
T = Trace of Precipitation, MM = Missing Value Source: NWS Daily Summary

Daily Weather History Graph

Daily Weather History Graph

Search for Another Location

Airport:

Trip Planner

Search our weather history database for the weather conditions in past years. The results will help you decide how hot, cold, wet, or windy it might be!

Date:

Astronomy

Feb. 19, 2013 Rise Set
Actual Time 7:07 AM CST 5:54 PM CST
Civil Twilight 6:38 AM CST 6:23 PM CST
Nautical Twilight 6:05 AM CST 6:55 PM CST
Astronomical Twilight 5:33 AM CST 7:28 PM CST
Moon 12:22 PM CST (2/19) 2:43 AM CST (2/19)
Length of Visible Light 11h 44m
Length of Day
10h 46m
Waxing Gibbous, 67% of the Moon is Illuminated
Feb 19
Waxing Gibbous
Feb 25
Full
Mar 4
Last Quarter
Mar 11
New
Mar 19
First Quarter

Hourly Weather History & Observations

Time (CST) Temp. Windchill Dew Point Humidity Pressure Visibility Wind Dir Wind Speed Gust Speed Precip Events Conditions
12:15 AM 10.4 °F -3.3 °F 1.4 °F 67% 29.93 in 10.0 mi NW 10.4 mph 21.9 mph N/A   Partly Cloudy
12:35 AM 8.6 °F -5.5 °F 1.4 °F 73% 29.94 in 10.0 mi NW 10.4 mph 24.2 mph N/A   Partly Cloudy
12:55 AM 8.6 °F -6.3 °F -0.4 °F 67% 29.95 in 10.0 mi NW 11.5 mph - N/A   Partly Cloudy
1:15 AM 8.6 °F -8.9 °F 3.2 °F 79% 29.95 in 7.0 mi NW 16.1 mph 29.9 mph N/A   Mostly Cloudy
1:35 AM 8.6 °F -7.7 °F -0.4 °F 67% 29.96 in 10.0 mi NW 13.8 mph 28.8 mph N/A   Scattered Clouds
1:55 AM 6.8 °F -10.0 °F -2.2 °F 67% 29.98 in 10.0 mi NW 13.8 mph 28.8 mph N/A   Clear
2:15 AM 6.8 °F -9.3 °F -2.2 °F 67% 29.99 in 10.0 mi NW 12.7 mph 24.2 mph N/A   Clear
2:35 AM 6.8 °F -10.0 °F -2.2 °F 67% 29.99 in 8.0 mi NW 13.8 mph 36.8 mph N/A   Partly Cloudy
2:55 AM 6.8 °F -10.0 °F -2.2 °F 67% 29.99 in 10.0 mi NW 13.8 mph 25.3 mph N/A   Partly Cloudy
3:15 AM 6.8 °F -9.3 °F -2.2 °F 67% 30.00 in 10.0 mi NW 12.7 mph 25.3 mph N/A   Clear
3:35 AM 6.8 °F -10.0 °F -2.2 °F 67% 30.00 in 10.0 mi NW 13.8 mph 19.6 mph N/A   Clear
3:55 AM 6.8 °F -10.0 °F -2.2 °F 67% 30.01 in 10.0 mi NW 13.8 mph 23.0 mph N/A   Clear
4:15 AM 6.8 °F -6.9 °F -2.2 °F 67% 30.02 in 7.0 mi NNW 9.2 mph 20.7 mph N/A   Scattered Clouds
4:35 AM 5.0 °F -11.6 °F -2.2 °F 72% 30.03 in 10.0 mi NW 12.7 mph 24.2 mph N/A   Partly Cloudy
4:55 AM 3.2 °F -15.3 °F -5.8 °F 66% 30.04 in 10.0 mi NNW 15.0 mph 21.9 mph N/A   Partly Cloudy
5:15 AM 3.2 °F -11.3 °F -5.8 °F 66% 30.04 in 10.0 mi NNW 9.2 mph 17.3 mph N/A   Clear
5:55 AM 3.2 °F -10.3 °F -2.2 °F 78% 30.05 in 10.0 mi NW 8.1 mph - N/A   Clear
6:15 AM 3.2 °F -7.8 °F -2.2 °F 78% 30.06 in 10.0 mi NW 5.8 mph - N/A   Clear
6:35 AM 6.8 °F -8.6 °F -0.4 °F 72% 30.06 in 10.0 mi NW 11.5 mph - N/A   Partly Cloudy
6:55 AM 6.8 °F -6.9 °F -0.4 °F 72% 30.07 in 10.0 mi NW 9.2 mph 17.3 mph N/A   Partly Cloudy
7:15 AM 6.8 °F -10.7 °F -0.4 °F 72% 30.09 in 10.0 mi NW 15.0 mph 23.0 mph N/A   Clear
7:35 AM 6.8 °F -10.0 °F -0.4 °F 72% 30.09 in 10.0 mi NW 13.8 mph 23.0 mph N/A   Clear
7:55 AM 8.6 °F -7.7 °F -0.4 °F 67% 30.11 in 10.0 mi NW 13.8 mph 23.0 mph N/A   Clear
8:15 AM 8.6 °F -8.9 °F -0.4 °F 67% 30.12 in 10.0 mi WNW 16.1 mph 26.5 mph N/A   Clear
8:35 AM 8.6 °F -8.3 °F -0.4 °F 67% 30.12 in 10.0 mi NW 15.0 mph 25.3 mph N/A   Clear
8:55 AM 10.4 °F -6.0 °F -0.4 °F 62% 30.13 in 10.0 mi NW 15.0 mph 28.8 mph N/A   Clear
9:35 AM 10.4 °F -6.0 °F 1.4 °F 67% 30.14 in 10.0 mi NW 15.0 mph 26.5 mph N/A   Clear
9:55 AM 12.2 °F -6.3 °F 1.4 °F 62% 30.14 in 10.0 mi NW 20.7 mph 31.1 mph N/A   Clear
10:15 AM 12.2 °F -3.7 °F 1.4 °F 62% 30.15 in 10.0 mi NW 15.0 mph 33.4 mph N/A   Clear
10:35 AM 12.2 °F -6.3 °F 1.4 °F 62% 30.16 in 10.0 mi NW 20.7 mph 29.9 mph N/A   Clear
10:55 AM 12.2 °F -7.1 °F -0.4 °F 57% 30.17 in 10.0 mi NW 23.0 mph 31.1 mph N/A   Clear
11:15 AM 12.2 °F -3.7 °F -0.4 °F 57% 30.18 in 10.0 mi NW 15.0 mph 24.2 mph N/A   Clear
11:35 AM 12.2 °F -3.7 °F -0.4 °F 57% 30.19 in 10.0 mi NNW 15.0 mph 25.3 mph N/A   Clear
12:15 PM 14.0 °F -2.0 °F 1.4 °F 57% 30.20 in 10.0 mi NW 16.1 mph 31.1 mph N/A   Clear
12:35 PM 15.8 °F 0.3 °F -0.4 °F 49% 30.20 in 10.0 mi NW 16.1 mph 28.8 mph N/A   Clear
12:55 PM 15.8 °F 0.9 °F -0.4 °F 49% 30.20 in 10.0 mi NW 15.0 mph 24.2 mph N/A   Clear
1:15 PM 15.8 °F 0.9 °F 1.4 °F 53% 30.20 in 10.0 mi NW 15.0 mph 27.6 mph N/A   Clear
1:35 PM 15.8 °F -0.2 °F 1.4 °F 53% 30.19 in 10.0 mi NW 17.3 mph 31.1 mph N/A   Clear
1:55 PM 17.6 °F 3.7 °F 1.4 °F 49% 30.19 in 10.0 mi NNW 13.8 mph 31.1 mph N/A   Clear
2:15 PM 17.6 °F 1.7 °F 1.4 °F 49% 30.20 in 10.0 mi NW 18.4 mph 26.5 mph N/A   Clear
2:35 PM 17.6 °F 2.2 °F 3.2 °F 53% 30.20 in 10.0 mi WNW 17.3 mph 25.3 mph N/A   Clear
2:55 PM 17.6 °F 1.7 °F 1.4 °F 49% 30.21 in 10.0 mi WNW 18.4 mph 25.3 mph N/A   Clear
3:15 PM 17.6 °F 2.7 °F 1.4 °F 49% 30.21 in 10.0 mi NW 16.1 mph 24.2 mph N/A   Clear
3:35 PM 17.6 °F 3.2 °F 1.4 °F 49% 30.21 in 10.0 mi NW 15.0 mph 25.3 mph N/A   Clear
3:55 PM 17.6 °F 2.7 °F 1.4 °F 49% 30.22 in 10.0 mi NW 16.1 mph 23.0 mph N/A   Clear
4:15 PM 17.6 °F 1.7 °F 1.4 °F 49% 30.23 in 10.0 mi WNW 18.4 mph 25.3 mph N/A   Clear
4:35 PM 17.6 °F 3.7 °F 1.4 °F 49% 30.23 in 10.0 mi WNW 13.8 mph 19.6 mph N/A   Clear
4:55 PM 15.8 °F 1.4 °F -0.4 °F 49% 30.23 in 10.0 mi NW 13.8 mph 25.3 mph N/A   Clear
5:15 PM 15.8 °F 1.4 °F -0.4 °F 49% 30.24 in 10.0 mi NW 13.8 mph 20.7 mph N/A   Clear
6:35 PM 10.4 °F -3.3 °F -0.4 °F 62% 30.25 in 10.0 mi NW 10.4 mph - N/A   Clear
6:55 PM 10.4 °F -1.5 °F -0.4 °F 62% 30.26 in 10.0 mi NW 8.1 mph - N/A   Clear
7:15 PM 10.4 °F -1.5 °F -0.4 °F 62% 30.27 in 10.0 mi NNW 8.1 mph 16.1 mph N/A   Clear
7:35 PM 10.4 °F -2.4 °F -0.4 °F 62% 30.28 in 10.0 mi NNW 9.2 mph 18.4 mph N/A   Clear
7:55 PM 8.6 °F -4.7 °F -2.2 °F 62% 30.28 in 10.0 mi NNW 9.2 mph - N/A   Clear
8:15 PM 8.6 °F -4.7 °F -2.2 °F 62% 30.27 in 10.0 mi North 9.2 mph - N/A   Clear
8:35 PM 6.8 °F -8.6 °F -4.0 °F 61% 30.28 in 10.0 mi NNW 11.5 mph 17.3 mph N/A   Clear
8:55 PM 6.8 °F -8.6 °F -5.8 °F 56% 30.29 in 10.0 mi North 11.5 mph 17.3 mph N/A   Clear
9:15 PM 3.2 °F -10.3 °F -5.8 °F 66% 30.31 in 10.0 mi NNW 8.1 mph - N/A   Clear
9:35 PM 3.2 °F -11.3 °F -5.8 °F 66% 30.32 in 10.0 mi NNW 9.2 mph - N/A   Clear
9:55 PM 1.4 °F -14.5 °F -7.6 °F 66% 30.33 in 10.0 mi NNW 10.4 mph - N/A   Clear
10:15 PM 1.4 °F -14.5 °F -7.6 °F 66% 30.33 in 10.0 mi NNW 10.4 mph - N/A   Clear
10:35 PM 1.4 °F -11.3 °F -7.6 °F 66% 30.34 in 10.0 mi NNW 6.9 mph - N/A   Clear
10:55 PM 1.4 °F -11.3 °F -7.6 °F 66% 30.35 in 10.0 mi North 6.9 mph - N/A   Clear
11:15 PM 1.4 °F -12.5 °F -7.6 °F 66% 30.35 in 10.0 mi NNW 8.1 mph - N/A   Clear
11:35 PM 1.4 °F -9.9 °F -7.6 °F 66% 30.37 in 10.0 mi NNW 5.8 mph - N/A   Clear